Вернуться в каталог

STARLINK-3146

АктивенСвязьVLEO
NORAD 49414·PAYLOAD·🇺🇸 United States

Запущен Nov 13, 2021 с Cape Canaveral Space Force Station

Loading…

Ближайшие Пролёты (ближайшие 24 часа)

TLE

СвежийSource: CelesTrak SupGP

Эпоха: Sep 14, 2026, 21:05 UTC

1 49414C 21104G   26257.87895833 -.00007069  00000+0 -21454-3 0  2572
2 49414  53.1576  88.1043 0001364  84.1322 108.7476 15.33544986    11

Отслеживайте STARLINK-3146 в реальном времени с AllMySat

Download on the App Store